Sioux Gateway Col. Bud Day Field
KSUX : now visible

Airfield :











YOU CAN JOIN US ON...

 
LOGIN :

Register | Disclaimer

   EN    FR    IT 

 









Legend :    VFR   Marginal VFR   IFR   Intensive IFR   Very Intensive IFR
Visi :
Ceiling :
>= 8 km
>= 3000ft
5 to 8 km
1000 to 3000 ft
1500m to 5 km
500 to 1000 ft
800 to 1500m
200 to 500 ft
< 800m
< 200 ft
Symbols :   Thunderstorms  Fog  Heavy snow  Heavy precipitations  Wind > 20 kt







- Airport Elevation : 1098 ft
- IATA code : SUX


KSUX - Sioux Gateway Col. Bud Day Field

CURRENT METAR :
  • 210752Z AUTO 12005KT 10SM SCT060 18/17 A2999 RMK AO2 SLP150 T01830172

EXPIRED METARs :
  • 210652Z AUTO 07003KT 10SM CLR 19/17 A2998 RMK AO2 SLP146 T01890172
  • 210552Z AUTO 05005KT 10SM CLR 19/17 A2998 RMK AO2 SLP147 T01940172 10250 20194 402890189 51008

TAF KSUX
Valid from the 21 at 06:00 until the 22 at 06:00 UTC


210520Z 2106/2206 03007KT P6SM BKN180
FM211400 06006KT P6SM BKN200
FM212000 05009KT P6SM BKN120
FM220000 03007KT P6SM BKN100
FM220200 02006KT P6SM SCT100
KZMP FIR / North America



MET'MAP, your aeronautical weather chart ! - Copyright ORBIFLY December 2007 - Disclaimer

ORBIFLY MET'MAP TEAM :

Programming & Development : Alexandra Zaïnal
Concept & Development : Baudouin d'Aumeries
Co-Development & Prog : Marc-Olivier Méhu
Technical & hardware support : Manuel Goepfert

Contact : metmap@orbifly.com




SOURCES & CREDITS :

   NOAA       Earth
Advisory